Jamestown, NY

11:53 AM EDT on July 20, 2017 (GMT -0400)
Chautauqua County-Jamestown

Weather History for KJHW - November, 2013

Change the Weather History Date:

Saturday, November 2, 2013

  Actual Average Record
Temperature  
Mean Temperature 42 °F -  
Max Temperature 46 °F 57 °F 76 °F (1990)
Min Temperature 37 °F 33 °F 22 °F (1976)
Degree Days  
Heating Degree Days 24    
Moisture  
Dew Point 38 °F    
Average Humidity 84    
Maximum Humidity 93    
Minimum Humidity 76    
Precipitation  
Precipitation 0.10 in - - ()
Sea Level Pressure  
Sea Level Pressure 29.70 in    
Wind  
Wind Speed 8 mph (WSW)    
Max Wind Speed 14 mph    
Max Gust Speed 16 mph    
Visibility 9 miles    
Events      
Averages and records for this station are not official NWS values.
T = Trace of Precipitation, MM = Missing Value Source: NWS Daily Summary

Daily Weather History Graph

Daily Weather History Graph

Search for Another Location

Airport or City:

Trip Planner

Search our weather history database for the weather conditions in past years. The results will help you decide how hot, cold, wet, or windy it might be!

Date:

Astronomy

Nov. 02, 2013 Rise Set
Actual Time 7:51 AM EDT 6:09 PM EDT
Civil Twilight 7:22 AM EDT 6:38 PM EDT
Nautical Twilight 6:49 AM EDT 7:11 PM EDT
Astronomical Twilight 6:16 AM EDT 7:44 PM EDT
Moon 6:46 AM EDT (11/2) 5:39 PM EDT (11/2)
Length of Visible Light 11h 16m
Length of Day
10h 17m
Waning Crescent, 1% of the Moon is Illuminated
Nov 2
Waning Crescent
Nov 3
New
Nov 10
First Quarter
Nov 17
Full
Nov 25
Last Quarter

Hourly Weather History & Observations

Time (EDT) Temp. Windchill Dew Point Humidity Pressure Visibility Wind Dir Wind Speed Gust Speed Precip Events Conditions
12:15 AM 46.4 °F 44.3 °F 39.2 °F 76% 29.65 in 10.0 mi SSW 4.6 mph - N/A   Mostly Cloudy
12:35 AM 46.4 °F 44.3 °F 39.2 °F 76% 29.65 in 10.0 mi SW 4.6 mph - N/A   Overcast
12:55 AM 46.4 °F 43.5 °F 39.2 °F 76% 29.65 in 10.0 mi SSW 5.8 mph - N/A   Overcast
1:15 AM 46.4 °F 44.3 °F 39.2 °F 76% 29.64 in 10.0 mi SSW 4.6 mph - N/A   Overcast
1:35 AM 46.4 °F 42.9 °F 39.2 °F 76% 29.64 in 10.0 mi SW 6.9 mph - N/A   Overcast
1:55 AM 46.4 °F 42.9 °F 39.2 °F 76% 29.64 in 10.0 mi SW 6.9 mph - N/A   Overcast
2:15 AM 46.4 °F 41.5 °F 39.2 °F 76% 29.64 in 10.0 mi SW 10.4 mph - N/A   Overcast
2:35 AM 46.4 °F 42.4 °F 39.2 °F 76% 29.64 in 10.0 mi SW 8.1 mph - N/A   Overcast
2:55 AM 46.4 °F 42.9 °F 39.2 °F 76% 29.64 in 10.0 mi SW 6.9 mph - N/A   Overcast
3:15 AM 46.4 °F 42.9 °F 39.2 °F 76% 29.63 in 10.0 mi SW 6.9 mph - N/A   Overcast
3:35 AM 44.6 °F 40.2 °F 39.2 °F 81% 29.64 in 10.0 mi SW 8.1 mph - N/A   Overcast
3:55 AM 44.6 °F 41.4 °F 39.2 °F 81% 29.63 in 10.0 mi SW 5.8 mph - N/A   Mostly Cloudy
4:15 AM 44.6 °F 39.2 °F 39.2 °F 81% 29.63 in 10.0 mi WSW 10.4 mph - N/A   Scattered Clouds
4:35 AM 44.6 °F 40.2 °F 39.2 °F 81% 29.63 in 10.0 mi SW 8.1 mph - N/A   Scattered Clouds
4:55 AM 44.6 °F 40.2 °F 39.2 °F 81% 29.63 in 10.0 mi SW 8.1 mph - N/A   Mostly Cloudy
5:15 AM 44.6 °F 40.2 °F 39.2 °F 81% 29.64 in 10.0 mi SW 8.1 mph - N/A   Overcast
5:35 AM 44.6 °F 41.4 °F 39.2 °F 81% 29.64 in 10.0 mi SW 5.8 mph - N/A   Overcast
5:55 AM 44.6 °F 39.7 °F 39.2 °F 81% 29.64 in 10.0 mi SW 9.2 mph - N/A   Overcast
6:15 AM 44.6 °F 42.2 °F 37.4 °F 76% 29.64 in 10.0 mi SSW 4.6 mph - N/A   Overcast
6:35 AM 42.8 °F 38.6 °F 37.4 °F 81% 29.65 in 10.0 mi South 6.9 mph - N/A   Overcast
6:55 AM 42.8 °F 40.1 °F 37.4 °F 81% 29.65 in 10.0 mi SSW 4.6 mph - N/A   Overcast
7:15 AM 42.8 °F 38.6 °F 37.4 °F 81% 29.65 in 10.0 mi SSW 6.9 mph - N/A   Overcast
7:35 AM 42.8 °F 38.6 °F 37.4 °F 81% 29.64 in 10.0 mi SSW 6.9 mph - N/A   Overcast
7:55 AM 42.8 °F 38.6 °F 39.2 °F 87% 29.65 in 10.0 mi South 6.9 mph - N/A   Overcast
8:15 AM 42.8 °F 37.0 °F 39.2 °F 87% 29.66 in 10.0 mi SSW 10.4 mph - N/A   Overcast
8:35 AM 42.8 °F 37.5 °F 39.2 °F 87% 29.66 in 10.0 mi SW 9.2 mph - N/A   Overcast
8:55 AM 42.8 °F 38.0 °F 37.4 °F 81% 29.67 in 10.0 mi SSW 8.1 mph - N/A   Overcast
9:15 AM 42.8 °F 37.5 °F 37.4 °F 81% 29.67 in 10.0 mi SW 9.2 mph - N/A   Overcast
9:35 AM 42.8 °F 37.0 °F 37.4 °F 81% 29.67 in 10.0 mi SW 10.4 mph - N/A   Overcast
9:55 AM 42.8 °F 37.0 °F 39.2 °F 87% 29.67 in 10.0 mi SW 10.4 mph - N/A   Mostly Cloudy
10:15 AM 42.8 °F 38.0 °F 39.2 °F 87% 29.67 in 8.0 mi SW 8.1 mph - N/A   Overcast
10:35 AM 44.6 °F 40.2 °F 39.2 °F 81% 29.67 in 8.0 mi SW 8.1 mph - N/A   Overcast
10:55 AM 42.8 °F 38.0 °F 39.2 °F 87% 29.67 in 7.0 mi SW 8.1 mph - N/A   Overcast
11:15 AM 42.8 °F 37.5 °F 39.2 °F 87% 29.67 in 9.0 mi SW 9.2 mph - N/A   Overcast
11:35 AM 42.8 °F 37.5 °F 39.2 °F 87% 29.68 in 9.0 mi SW 9.2 mph - N/A   Overcast
11:55 AM 42.8 °F 36.6 °F 39.2 °F 87% 29.68 in 7.0 mi WSW 11.5 mph - 0.02 in   Overcast
12:15 PM 42.8 °F 37.5 °F 39.2 °F 87% 29.68 in 5.0 mi SW 9.2 mph - N/A   Overcast
12:35 PM 42.8 °F 38.6 °F 39.2 °F 87% 29.68 in 10.0 mi SW 6.9 mph - N/A   Overcast
12:55 PM 44.6 °F 38.8 °F 39.2 °F 81% 29.69 in 5.0 mi WSW 11.5 mph - 0.01 in   Overcast
1:15 PM 44.6 °F 39.2 °F 39.2 °F 81% 29.69 in 9.0 mi WSW 10.4 mph - 0.03 in   Mostly Cloudy
1:35 PM 44.6 °F 38.8 °F 41.0 °F 87% 29.69 in 8.0 mi SW 11.5 mph - 0.03 in   Mostly Cloudy
1:55 PM 44.6 °F 38.1 °F 41.0 °F 87% 29.69 in 10.0 mi WSW 13.8 mph - 0.03 in   Overcast
2:15 PM 42.8 °F 37.0 °F 39.2 °F 87% 29.69 in 10.0 mi WSW 10.4 mph - 0.01 in   Overcast
2:35 PM 44.6 °F 38.8 °F 41.0 °F 87% 29.69 in 10.0 mi SW 11.5 mph - 0.01 in   Mostly Cloudy
2:55 PM 44.6 °F 39.7 °F 41.0 °F 87% 29.69 in 9.0 mi SW 9.2 mph 16.1 mph 0.01 in   Overcast
3:15 PM 44.6 °F 38.8 °F 39.2 °F 81% 29.70 in 4.0 mi WSW 11.5 mph - N/A   Overcast
3:35 PM 42.8 °F 37.5 °F 39.2 °F 87% 29.70 in 5.0 mi West 9.2 mph - N/A   Overcast
3:55 PM 44.6 °F 40.2 °F 41.0 °F 87% 29.71 in 6.0 mi WNW 8.1 mph - 0.01 in   Overcast
4:15 PM 42.8 °F 37.0 °F 41.0 °F 93% 29.72 in 7.0 mi NNW 10.4 mph - 0.02 in   Overcast
4:35 PM 42.8 °F 36.6 °F 39.2 °F 87% 29.73 in 7.0 mi NNW 11.5 mph - 0.02 in   Overcast
4:55 PM 42.8 °F 37.5 °F 39.2 °F 87% 29.74 in 10.0 mi North 9.2 mph - 0.02 in   Overcast
5:15 PM 42.8 °F 38.0 °F 39.2 °F 87% 29.75 in 10.0 mi North 8.1 mph - N/A   Overcast
5:35 PM 41.0 °F 34.7 °F 37.4 °F 87% 29.76 in 10.0 mi North 10.4 mph - N/A   Overcast
5:55 PM 39.2 °F 32.5 °F 37.4 °F 93% 29.77 in 10.0 mi North 10.4 mph - N/A   Overcast
6:15 PM 39.2 °F 32.5 °F 37.4 °F 93% 29.78 in 10.0 mi North 10.4 mph - N/A   Overcast
6:35 PM 39.2 °F 33.0 °F 37.4 °F 93% 29.79 in 10.0 mi North 9.2 mph - N/A   Overcast
6:55 PM 39.2 °F 32.0 °F 37.4 °F 93% 29.81 in 10.0 mi North 11.5 mph - N/A   Overcast
7:15 PM 39.2 °F 33.0 °F 35.6 °F 87% 29.82 in 10.0 mi North 9.2 mph - N/A   Overcast
7:35 PM 37.4 °F 30.3 °F 35.6 °F 93% 29.83 in 10.0 mi North 10.4 mph - N/A   Overcast
7:55 PM 37.4 °F 29.8 °F 35.6 °F 93% 29.85 in 10.0 mi North 11.5 mph - N/A   Overcast
8:15 PM 37.4 °F 30.8 °F 33.8 °F 87% 29.86 in 10.0 mi North 9.2 mph - N/A   Overcast
8:35 PM 37.4 °F 30.8 °F 33.8 °F 87% 29.87 in 10.0 mi North 9.2 mph - N/A   Overcast
8:55 PM 37.4 °F 30.3 °F 33.8 °F 87% 29.88 in 10.0 mi North 10.4 mph 16.1 mph N/A   Overcast
9:15 PM 37.4 °F 31.4 °F 33.8 °F 87% 29.89 in 10.0 mi North 8.1 mph - N/A   Overcast